Home   Weather   Gummersbach   Past weeks

Flag for Germany Past Weather in Gummersbach, North Rhine-Westphalia, Germany — Yesterday and Last 2 Weeks

Now
48 °F

Partly sunny.


Feels Like: 45 °F
Forecast: 38 / 47 °F
Wind: 7 mph from Southwest

Location: Koeln / Bonn

Current Time: Feb 19, 2017 at 3:42:31 pm

Latest Report: Feb 19, 2017 at 2:50 pm


Visibility: N/A

Pressure: 30.12 "Hg

Humidity: 71%

Dew Point: 39 °F

Location of GummersbachLocation

Past Weather in Gummersbach — Graph

°F

Gummersbach Temperature Yesterday

Maximum temperature yesterday: 48 °F (at 1:20 pm)
Minimum temperature yesterday: 37 °F (at 9:50 pm)
Average temperature yesterday: 43 °F

High & Low Weather Summary for the Past Weeks

 TemperatureHumidityPressure
High61 °F (Feb 15, 2:50 pm)100% (Feb 6, 3:20 am)30.54 "Hg (Feb 6, 3:20 am)
Low28 °F (Feb 6, 4:50 am)39% (Feb 15, 2:20 pm)29.47 "Hg (Feb 4, 2:20 pm)
Average40 °F77%30.19 "Hg
* Reported Feb 4 2:20 pm — Feb 19 2:20 pm, Gummersbach, Weather by CustomWeather, © 2017

Note: Actual official high and low records may vary slightly from our data, if they occured in-between our weather recording intervals... More about our weather records

Advertising

Gummersbach Weather History for the Previous 24 Hours

Scroll right to see more
 ConditionsComfort  
Time TempWeatherWind HumidityBarometerVisibility
2:20 pm
Sun, Feb 19
48 °FLight rain. Partly sunny.6 mph76%30.15 "HgN/A
1:50 pm48 °FLight rain. Partly sunny.6 mph71%30.15 "HgN/A
1:20 pm46 °FLight rain. Partly sunny.7 mph71%30.15 "HgN/A
12:50 pm46 °FLight rain. Broken clouds.8 mph71%30.15 "HgN/A
12:20 pm45 °FLight rain. Broken clouds.7 mph71%30.18 "HgN/A
11:50 am45 °FPassing clouds.6 mph66%30.21 "HgN/A
11:20 am43 °FPassing clouds.6 mph71%30.21 "HgN/A
10:50 am41 °FBroken clouds.7 mph76%30.21 "HgN/A
10:20 am41 °FSunny.9 mph76%30.21 "Hg10 mi
9:50 am39 °FScattered clouds.8 mph81%30.21 "HgN/A
9:20 am37 °FSunny.7 mph81%30.21 "Hg10 mi
8:50 am36 °FSunny.8 mph81%30.21 "Hg10 mi
8:20 am36 °FScattered clouds.5 mph81%30.21 "HgN/A
7:50 am34 °FScattered clouds.3 mph87%30.21 "HgN/A
7:20 am34 °FPartly cloudy.7 mph87%30.21 "HgN/A
6:50 am34 °FPassing clouds.3 mph87%30.21 "HgN/A
6:20 am34 °FPartly cloudy.2 mph87%30.24 "HgN/A
5:50 am34 °FPassing clouds.6 mph87%30.21 "HgN/A
5:20 am34 °FClear.5 mph87%30.24 "Hg10 mi
4:50 am36 °FPassing clouds.6 mph81%30.24 "HgN/A
4:20 am36 °FPassing clouds.3 mph81%30.24 "HgN/A
3:50 am36 °FPassing clouds.3 mph81%30.24 "HgN/A
3:20 am36 °FFog.3 mph81%30.24 "HgN/A
2:50 am34 °FFog.2 mph87%30.27 "HgN/A
2:20 am32 °FFog.2 mph93%30.27 "HgN/A
1:50 am34 °FClear.1 mph93%30.27 "Hg10 mi
1:20 am34 °FClear.1 mph87%30.27 "Hg10 mi
12:50 am37 °FClear.7 mph81%30.27 "Hg10 mi
12:20 am36 °FClear.7 mph87%30.27 "Hg10 mi
11:50 pm
Sat, Feb 18
37 °FClear.7 mph81%30.27 "Hg10 mi
11:20 pm37 °FClear.6 mph81%30.27 "Hg10 mi
10:50 pm37 °FClear.8 mph81%30.30 "Hg10 mi
10:20 pm37 °FClear.8 mph81%30.30 "Hg10 mi
9:50 pm37 °FClear.8 mph81%30.30 "Hg10 mi
9:20 pm39 °FClear.8 mph75%30.30 "Hg10 mi
8:50 pm39 °FClear.6 mph75%30.30 "Hg10 mi
8:20 pm41 °FClear.7 mph70%30.30 "Hg10 mi
7:50 pm41 °FClear.7 mph70%30.30 "Hg10 mi
7:20 pm43 °FPassing clouds.6 mph66%30.30 "HgN/A
6:50 pm43 °FPassing clouds.6 mph66%30.30 "HgN/A
6:20 pm43 °FPassing clouds.3 mph66%30.30 "HgN/A
5:50 pm45 °FPartly sunny.3 mph61%30.30 "HgN/A
5:20 pm48 °FPartly sunny.3 mph58%30.30 "HgN/A
4:50 pm48 °FPartly sunny.3 mph54%30.30 "HgN/A
4:20 pm48 °FPartly sunny.1 mph58%30.30 "HgN/A
3:50 pm48 °FPartly sunny.3 mph54%30.30 "HgN/A
3:20 pm48 °FPartly sunny.5 mph54%30.30 "HgN/A
Weather by CustomWeather, © 2017

See weather overviewHow to use our weather pages